Miscellaneous Local Product
Issued by NWS Hastings, NE

Home | Current Version | Previous Version | Text Only | Print | Product List | Glossary Off
Versions: 1 2 3 4 5 6 7 8 9 10 11 12 13 14 15 16 17 18 19 20 21 22 23 24 25 26 27 28 29 30 31 32 33 34 35 36 37 38 39 40 41 42 43 44 45 46 47 48 49 50

000
AXUS43 KGID 280402
MISGRI

GID CWA HOURLY WEATHER ROUNDUP
NATIONAL WEATHER SERVICE HASTINGS NE
1100 PM CDT TUE JUN 27 2017

NOTE: "FAIR" INDICATES FEW OR NO CLOUDS BELOW 12,000 FEET WITH NO
SIGNIFICANT WEATHER AND/OR OBSTRUCTIONS TO VISIBILITY.

...SOUTH CENTRAL NEBRASKA...

CITY           SKY/WX    TMP DP  RH WIND       PRES   REMARKS
GRAND ISLAND   CLOUDY    79  71  76 S17G28    29.68R
HASTINGS       CLOUDY    83  62  49 S15G26    29.70R
KEARNEY        CLOUDY    75  57  53 NW31G39   29.76R THUNDER
ORD            LGT RAIN  66  59  78 W22G31    29.71R
YORK           MOCLDY    77  70  78 S20G26    29.71R
AURORA         CLOUDY    79  70  73 S22G28    29.68F
LEXINGTON      CLOUDY    65  62  89 NE10      29.74F
HOLDREGE       CLOUDY    71  58  64 NW24G36   29.78R THUNDER
HEBRON         CLOUDY    79  68  69 S18G25    29.72F

...NEBRASKA PANHANDLE...

CITY           SKY/WX    TMP DP  RH WIND       PRES   REMARKS
CHADRON        CLOUDY    65  55  70 SW12      29.73R
ALLIANCE       CLOUDY    60  56  86 NW6       29.77R
SCOTTSBLUFF    CLOUDY    65  52  62 NW7       29.81R
SIDNEY         CLOUDY    64  51  62 N12       29.85R

...WESTERN AND NORTH CENTRAL NEBRASKA...

CITY           SKY/WX    TMP DP  RH WIND       PRES   REMARKS
VALENTINE      CLOUDY    72  51  47 SE7       29.71R
AINSWORTH      LGT RAIN  69  61  75 N30G37    29.73R
ONEILL         CLOUDY    75  69  81 S15       29.66F THUNDER
BROKEN BOW     CLOUDY    68  63  84 W6        29.70F
IMPERIAL       PTCLDY    80  45  28 S15G23    29.72R
NORTH PLATTE   CLOUDY    65  61  87 E14       29.69R
MCCOOK         CLOUDY    74  56  53 N8        29.68F

...EASTERN NEBRASKA...

CITY           SKY/WX    TMP DP  RH WIND       PRES   REMARKS
NORFOLK        MOCLDY    75  66  73 SE17G31   29.67F
SO SIOUX CITY  CLOUDY    75  65  70 S20G32    29.71F
TEKAMAH        CLOUDY    76  64  66 SE20      29.74F
COLUMBUS       CLOUDY    76  68  76 SE18G26   29.69F
ALBION         CLOUDY    78  69  74 SE14      29.67F
OMAHA EPPLEY   CLOUDY    76  65  68 SE18      29.78S
OFFUTT AFB     CLOUDY    74  65  73 SE15      29.78S
MILLARD        CLOUDY    77  68  73 SE16      29.77F
LINCOLN        PTCLDY    77  65  66 S21G28    29.74F
NEBRASKA CITY  CLOUDY    74  68  81 S16       29.81S
BEATRICE       CLOUDY    76  66  69 S16G24    29.76S
FALLS CITY     CLEAR     74  66  76 SE15      29.81F

...NORTHERN KANSAS...

CITY           SKY/WX    TMP DP  RH WIND       PRES   REMARKS
GOODLAND       CLOUDY    77  53  43 S26G48    29.71F
HILL CITY      CLOUDY    85  60  42 S20G32    29.71R
NORTON         CLEAR     81  52  36 S16G22    29.69
PHILLIPSBURG   CLEAR     84  59  42 SE20G30   29.69R
SMITH CENTER   PTCLDY    82  61  47 SE17G26   29.70F
HAYS           MOCLDY    83  62  49 S23G33    29.71F
RUSSELL        CLOUDY    82  60  47 S21       29.72F
CONCORDIA      CLOUDY    79  68  69 S24G35    29.74F
SALINA         PTCLDY    82  66  58 S18       29.78S
TOPEKA         CLOUDY    76  66  71 SE13      29.86R



USA.gov is the U.S. government's official web portal to all federal, state and local government web resources and services.